Weather History for Caldwell, ID

Change the Weather History Date:

Wednesday, December 19, 2012

  Actual Average (KBOI) Record (KBOI)
Temperature  
Mean Temperature 25 °F 30 °F  
Max Temperature 35 °F 37 °F 60 °F (1917)
Min Temperature 15 °F 23 °F -6 °F (1984)
Degree Days  
Heating Degree Days 40 35  
Month to date heating degree days 638  
Since 1 July heating degree days 1892  
Cooling Degree Days 0 0  
Month to date cooling degree days 0  
Year to date cooling degree days 942  
Moisture  
Dew Point 12 °F    
Average Humidity 56    
Maximum Humidity 79    
Minimum Humidity 38    
Precipitation  
Precipitation 0.00 in 0.06 in 0.58 in (2010)
Month to date precipitation 0.95  
Year to date precipitation 11.13  
Snow  
Snow 0.00 in 0.20 in 4.20 in (1990)
Month to date snowfall 4.0  
Since 1 July snowfall 6.7  
Snow Depth -    
Sea Level Pressure  
Sea Level Pressure 30.18 in    
Wind  
Wind Speed 7 mph (SE)    
Max Wind Speed 26 mph    
Max Gust Speed 32 mph    
Visibility 10 miles    
Events      
T = Trace of Precipitation, MM = Missing Value Source: NWS Daily Summary

Daily Weather History Graph

Daily Weather History Graph

Search for Another Location

Airport:

Trip Planner

Search our weather history database for the weather conditions in past years. The results will help you decide how hot, cold, wet, or windy it might be!

Date:

Astronomy

Dec. 19, 2012 Rise Set
Actual Time 8:16 AM MST 5:11 PM MST
Civil Twilight 7:43 AM MST 5:44 PM MST
Nautical Twilight 7:06 AM MST 6:21 PM MST
Astronomical Twilight 6:31 AM MST 6:56 PM MST
Moon 12:14 PM MST (12/19) No Moon Set
Length of Visible Light 10h 01m
Length of Day
8h 55m
Waxing Crescent, 45% of the Moon is Illuminated
Dec 19
Waxing Crescent
Dec 19
First Quarter
Dec 28
Full
Jan 4
Last Quarter
Jan 11
New

Hourly Weather History & Observations

Time (MST) Temp. Windchill Dew Point Humidity Pressure Visibility Wind Dir Wind Speed Gust Speed Precip Events Conditions
12:15 AM 19.4 °F - 10.4 °F 68% 30.05 in 10.0 mi Calm Calm - N/A   Clear
12:35 AM 19.4 °F - 12.2 °F 74% 30.05 in 9.0 mi Calm Calm - N/A   Clear
12:55 AM 19.4 °F - 12.2 °F 74% 30.06 in 10.0 mi Calm Calm - N/A   Clear
1:15 AM 17.6 °F - 10.4 °F 73% 30.06 in 10.0 mi Calm Calm - N/A   Clear
1:35 AM 17.6 °F 12.3 °F 10.4 °F 73% 30.06 in 10.0 mi SE 3.5 mph - N/A   Clear
1:55 AM 17.6 °F 10.7 °F 12.2 °F 79% 30.06 in 10.0 mi SSE 4.6 mph - N/A   Clear
2:15 AM 17.6 °F 10.7 °F 10.4 °F 73% 30.06 in 10.0 mi ESE 4.6 mph - N/A   Clear
2:35 AM 17.6 °F - 8.6 °F 68% 30.07 in 10.0 mi Calm Calm - N/A   Clear
2:55 AM 17.6 °F - 10.4 °F 73% 30.08 in 10.0 mi Calm Calm - N/A   Clear
3:15 AM 17.6 °F - 10.4 °F 73% 30.08 in 10.0 mi Calm Calm - N/A   Clear
3:35 AM 17.6 °F 10.7 °F 8.6 °F 68% 30.09 in 10.0 mi SE 4.6 mph - N/A   Clear
3:55 AM 17.6 °F - 10.4 °F 73% 30.10 in 10.0 mi Calm Calm - N/A   Clear
4:15 AM 17.6 °F - 10.4 °F 73% 30.11 in 10.0 mi Calm Calm - N/A   Clear
4:35 AM 15.8 °F 10.2 °F 8.6 °F 73% 30.11 in 10.0 mi East 3.5 mph - N/A   Clear
4:55 AM 15.8 °F - 8.6 °F 73% 30.12 in 10.0 mi Calm Calm - N/A   Clear
5:15 AM 15.8 °F 10.2 °F 8.6 °F 73% 30.12 in 10.0 mi East 3.5 mph - N/A   Clear
5:35 AM 15.8 °F 6.1 °F 6.8 °F 68% 30.13 in 10.0 mi ESE 6.9 mph - N/A   Clear
5:55 AM 15.8 °F 8.6 °F 8.6 °F 73% 30.13 in 10.0 mi ESE 4.6 mph - N/A   Clear
6:15 AM 15.8 °F 8.6 °F 8.6 °F 73% 30.13 in 10.0 mi ESE 4.6 mph - N/A   Clear
6:35 AM 15.8 °F 8.6 °F 8.6 °F 73% 30.14 in 10.0 mi ESE 4.6 mph - N/A   Clear
6:55 AM 15.8 °F - 6.8 °F 68% 30.15 in 10.0 mi Calm Calm - N/A   Clear
7:15 AM 15.8 °F - 6.8 °F 68% 30.17 in 10.0 mi Calm Calm - N/A   Clear
7:35 AM 15.8 °F 10.2 °F 6.8 °F 68% 30.17 in 10.0 mi SE 3.5 mph - N/A   Clear
7:55 AM 15.8 °F 7.2 °F 6.8 °F 68% 30.17 in 10.0 mi ESE 5.8 mph - N/A   Clear
8:15 AM 15.8 °F 10.2 °F 6.8 °F 68% 30.17 in 10.0 mi SE 3.5 mph - N/A   Clear
8:35 AM 17.6 °F 12.3 °F 8.6 °F 68% 30.19 in 10.0 mi East 3.5 mph - N/A   Clear
8:55 AM 15.8 °F 8.6 °F 8.6 °F 73% 30.19 in 10.0 mi East 4.6 mph - N/A   Clear
9:15 AM 17.6 °F 12.3 °F 8.6 °F 68% 30.20 in 10.0 mi ESE 3.5 mph - N/A   Clear
9:35 AM 21.2 °F 11.7 °F 12.2 °F 68% 30.21 in 10.0 mi SE 8.1 mph - N/A   Clear
9:55 AM 21.2 °F 10.9 °F 12.2 °F 68% 30.22 in 10.0 mi SE 9.2 mph - N/A   Clear
10:15 AM 24.8 °F 16.9 °F 14.0 °F 64% 30.23 in 10.0 mi SSE 6.9 mph - N/A   Clear
10:35 AM 26.6 °F 18.2 °F 15.8 °F 64% 30.23 in 10.0 mi SSE 8.1 mph - N/A   Clear
10:55 AM 26.6 °F 17.5 °F 15.8 °F 64% 30.24 in 10.0 mi SE 9.2 mph - N/A   Clear
11:15 AM 28.4 °F 19.1 °F 15.8 °F 59% 30.24 in 10.0 mi SE 10.4 mph - N/A   Clear
11:35 AM 30.2 °F 20.8 °F 15.8 °F 55% 30.24 in 10.0 mi SE 11.5 mph - N/A   Clear
11:55 AM 32.0 °F 22.1 °F 15.8 °F 51% 30.23 in 10.0 mi SE 13.8 mph - N/A   Clear
12:15 PM 33.8 °F 24.8 °F 15.8 °F 48% 30.24 in 10.0 mi SSE 12.7 mph - N/A   Clear
12:35 PM 33.8 °F 25.3 °F 15.8 °F 48% 30.23 in 10.0 mi SE 11.5 mph - N/A   Clear
12:55 PM 33.8 °F 24.8 °F 15.8 °F 48% 30.22 in 10.0 mi SE 12.7 mph - N/A   Clear
1:15 PM 35.6 °F 26.2 °F 15.8 °F 44% 30.22 in 10.0 mi ESE 15.0 mph - N/A   Clear
1:35 PM 33.8 °F 24.8 °F 15.8 °F 48% 30.22 in 10.0 mi SE 12.7 mph - N/A   Clear
1:55 PM 33.8 °F 24.3 °F 14.0 °F 44% 30.22 in 10.0 mi SE 13.8 mph - N/A   Clear
2:15 PM 33.8 °F 23.9 °F 14.0 °F 44% 30.21 in 10.0 mi SE 15.0 mph - N/A   Clear
2:35 PM 35.6 °F 26.6 °F 14.0 °F 41% 30.21 in 10.0 mi SE 13.8 mph - N/A   Clear
3:15 PM 33.8 °F 24.3 °F 14.0 °F 44% 30.22 in 10.0 mi SE 13.8 mph - N/A   Clear
3:35 PM 33.8 °F 23.9 °F 14.0 °F 44% 30.22 in 10.0 mi SE 15.0 mph - N/A   Clear
3:55 PM 33.8 °F 24.3 °F 12.2 °F 41% 30.22 in 10.0 mi SE 13.8 mph 19.6 mph N/A   Mostly Cloudy
4:15 PM 33.8 °F 23.5 °F 12.2 °F 41% 30.22 in 10.0 mi SE 16.1 mph - N/A   Scattered Clouds
4:35 PM 33.8 °F 24.8 °F 14.0 °F 44% 30.22 in 10.0 mi SE 12.7 mph - N/A   Scattered Clouds
4:55 PM 33.8 °F 24.3 °F 12.2 °F 41% 30.22 in 10.0 mi SE 13.8 mph 18.4 mph N/A   Overcast
5:15 PM 33.8 °F 24.8 °F 12.2 °F 41% 30.22 in 10.0 mi ESE 12.7 mph - N/A   Mostly Cloudy
5:35 PM 33.8 °F 24.8 °F 12.2 °F 41% 30.22 in 10.0 mi ESE 12.7 mph - N/A   Clear
5:55 PM 33.8 °F 23.9 °F 12.2 °F 41% 30.21 in 10.0 mi SE 15.0 mph - N/A   Scattered Clouds
6:15 PM 33.8 °F 23.9 °F 12.2 °F 41% 30.21 in 10.0 mi SE 15.0 mph 19.6 mph N/A   Overcast
6:35 PM 33.8 °F 24.3 °F 14.0 °F 44% 30.21 in 10.0 mi SE 13.8 mph - N/A   Overcast
6:55 PM 33.8 °F 23.9 °F 14.0 °F 44% 30.22 in 10.0 mi SE 15.0 mph - N/A   Overcast
7:15 PM 33.8 °F 23.5 °F 14.0 °F 44% 30.22 in 10.0 mi SE 16.1 mph - N/A   Overcast
7:35 PM 33.8 °F 23.9 °F 12.2 °F 41% 30.21 in 10.0 mi SE 15.0 mph 24.2 mph N/A   Scattered Clouds
7:55 PM 33.8 °F 22.5 °F 12.2 °F 41% 30.21 in 10.0 mi SE 19.6 mph 24.2 mph N/A   Partly Cloudy
8:15 PM 33.8 °F 22.5 °F 12.2 °F 41% 30.21 in 10.0 mi SE 19.6 mph - N/A   Clear
8:35 PM 33.8 °F 22.5 °F 14.0 °F 44% 30.22 in 10.0 mi SE 19.6 mph 28.8 mph N/A   Partly Cloudy
8:55 PM 33.8 °F 21.6 °F 12.2 °F 41% 30.21 in 10.0 mi SE 23.0 mph 27.6 mph N/A   Partly Cloudy
9:15 PM 33.8 °F 20.8 °F 12.2 °F 41% 30.20 in 10.0 mi SE 26.5 mph 31.1 mph N/A   Scattered Clouds
9:35 PM 33.8 °F 22.2 °F 12.2 °F 41% 30.21 in 10.0 mi SE 20.7 mph 28.8 mph N/A   Overcast
9:55 PM 33.8 °F 21.6 °F 12.2 °F 41% 30.20 in 10.0 mi SE 23.0 mph 32.2 mph N/A   Overcast
10:15 PM 33.8 °F 21.9 °F 12.2 °F 41% 30.19 in 10.0 mi SE 21.9 mph 31.1 mph N/A   Overcast
10:35 PM 33.8 °F 21.9 °F 12.2 °F 41% 30.19 in 10.0 mi SE 21.9 mph 29.9 mph N/A   Overcast
10:55 PM 33.8 °F 21.9 °F 12.2 °F 41% 30.20 in 10.0 mi SE 21.9 mph 32.2 mph N/A   Overcast
11:15 PM 33.8 °F 21.6 °F 10.4 °F 38% 30.20 in 10.0 mi SE 23.0 mph 27.6 mph N/A   Mostly Cloudy
11:35 PM 33.8 °F 21.9 °F 10.4 °F 38% 30.19 in 10.0 mi SE 21.9 mph 28.8 mph N/A   Scattered Clouds
11:55 PM 33.8 °F 21.9 °F 12.2 °F 41% 30.20 in 10.0 mi SE 21.9 mph 26.5 mph N/A   Overcast